Sheridan, WY

8:11 PM MDT on July 27, 2017 (GMT -0600)
Sheridan County

Weather History for KSHR - January, 2013

Change the Weather History Date:

Monday, January 28, 2013

  Actual Average Record
Temperature  
Mean Temperature 19 °F 24 °F  
Max Temperature 29 °F 37 °F 62 °F (1931)
Min Temperature 8 °F 12 °F -28 °F (1951)
Degree Days  
Heating Degree Days 46 41  
Month to date heating degree days 1091 1157  
Since 1 July heating degree days 4046 4340  
Cooling Degree Days 0 0  
Month to date cooling degree days 0 0  
Year to date cooling degree days 0 0  
Moisture  
Dew Point 21 °F    
Average Humidity 84    
Maximum Humidity 100    
Minimum Humidity 67    
Precipitation  
Precipitation 0.09 in 0.02 in 0.47 in (1916)
Month to date precipitation 0.49 0.50  
Year to date precipitation 0.49 0.50  
Sea Level Pressure  
Sea Level Pressure 29.84 in    
Wind  
Wind Speed 5 mph (WNW)    
Max Wind Speed 14 mph    
Max Gust Speed 22 mph    
Visibility 6 miles    
Events Snow    
T = Trace of Precipitation, MM = Missing Value Source: NWS Daily Summary

Daily Weather History Graph

Daily Weather History Graph

Search for Another Location

Airport or City:

Trip Planner

Search our weather history database for the weather conditions in past years. The results will help you decide how hot, cold, wet, or windy it might be!

Date:

Astronomy

Jan. 28, 2013 Rise Set
Actual Time 7:31 AM MST 5:11 PM MST
Civil Twilight 6:59 AM MST 5:42 PM MST
Nautical Twilight 6:24 AM MST 6:18 PM MST
Astronomical Twilight 5:50 AM MST 6:52 PM MST
Moon 7:16 PM MST 7:52 AM MST
Length of Visible Light 10h 43m
Length of Day
9h 40m
Full, 97% of the Moon is Illuminated
Jan 28
Full
Feb 3
Last Quarter
Feb 10
New
Feb 17
First Quarter
Feb 25
Full

Hourly Weather History & Observations

Time (MST) Temp. Windchill Dew Point Humidity Pressure Visibility Wind Dir Wind Speed Gust Speed Precip Events Conditions
12:10 AM 28.4 °F 22.2 °F 26.6 °F 93% 29.78 in 2.0 mi NNW 5.8 mph - 0.01 in Snow Light Snow
12:28 AM 28.4 °F 22.2 °F 26.6 °F 93% 29.77 in 2.5 mi NNW 5.8 mph - 0.01 in Snow Light Snow
12:35 AM 28.4 °F 22.2 °F 26.6 °F 93% 29.77 in 3.0 mi NNW 5.8 mph - 0.01 in Snow Light Snow
12:44 AM 28.4 °F 21.2 °F 26.6 °F 93% 29.78 in 2.5 mi NNW 6.9 mph - 0.02 in Snow Light Snow
12:53 AM 28.0 °F 21.7 °F 27.0 °F 96% 29.87 in 2.5 mi North 5.8 mph - 0.02 in Snow Light Snow
1:23 AM 28.4 °F 23.3 °F 26.6 °F 93% 29.77 in 1.2 mi North 4.6 mph - 0.01 in Snow Light Snow
1:53 AM 27.0 °F 18.0 °F 26.1 °F 96% 29.87 in 1.8 mi NNW 9.2 mph - 0.03 in Snow Light Snow
1:56 AM 26.6 °F 18.2 °F 26.6 °F 100% 29.78 in 2.0 mi NNW 8.1 mph - 0.00 in Snow Light Snow
2:11 AM 26.6 °F 19.1 °F 26.6 °F 100% 29.78 in 3.0 mi NNW 6.9 mph - 0.01 in Snow Light Snow
2:53 AM 27.0 °F 21.6 °F 25.0 °F 92% 29.89 in 3.0 mi NNW 4.6 mph - 0.02 in Snow Light Snow
3:01 AM 26.6 °F 19.1 °F 24.8 °F 93% 29.79 in 4.0 mi NW 6.9 mph - 0.00 in Snow Light Snow
3:18 AM 26.6 °F 19.1 °F 24.8 °F 93% 29.78 in 6.0 mi NNW 6.9 mph - 0.00 in Snow Light Snow
3:53 AM 26.1 °F 19.4 °F 24.1 °F 92% 29.90 in 8.0 mi WNW 5.8 mph - 0.00 in Snow Light Snow
4:19 AM 26.6 °F 21.2 °F 24.8 °F 93% 29.80 in 3.0 mi West 4.6 mph - 0.00 in Snow Light Snow
4:29 AM 26.6 °F 22.6 °F 24.8 °F 93% 29.79 in 3.0 mi WNW 3.5 mph - 0.00 in Snow Light Snow
4:35 AM 26.6 °F 21.2 °F 24.8 °F 93% 29.79 in 1.8 mi WNW 4.6 mph - 0.01 in Snow Light Snow
4:53 AM 26.1 °F 20.5 °F 25.0 °F 96% 29.89 in 1.5 mi West 4.6 mph - 0.02 in Snow Light Snow
4:58 AM 26.6 °F 22.6 °F 24.8 °F 93% 29.79 in 2.0 mi West 3.5 mph - 0.00 in Snow Light Snow
5:14 AM 26.6 °F 20.0 °F 24.8 °F 93% 29.78 in 3.0 mi WNW 5.8 mph - 0.00 in Snow Light Snow
5:53 AM 25.0 °F 19.3 °F 23.0 °F 92% 29.89 in 3.0 mi West 4.6 mph - 0.00 in Snow Light Snow
6:09 AM 24.8 °F 19.1 °F 23.0 °F 93% 29.78 in 5.0 mi West 4.6 mph - 0.00 in Snow Light Snow
6:53 AM 24.1 °F 19.7 °F 21.9 °F 91% 29.91 in 7.0 mi West 3.5 mph - 0.00 in   Overcast
7:53 AM 24.1 °F 18.2 °F 21.9 °F 91% 29.91 in 7.0 mi West 4.6 mph - 0.00 in   Overcast
8:53 AM 24.1 °F 17.0 °F 21.9 °F 91% 29.91 in 8.0 mi West 5.8 mph - N/A   Overcast
9:53 AM 25.0 °F 17.1 °F 21.0 °F 85% 29.91 in 9.0 mi WNW 6.9 mph - 0.00 in   Overcast
10:01 AM 24.8 °F 15.3 °F 21.2 °F 86% 29.79 in 6.0 mi WNW 9.2 mph - N/A   Overcast
10:34 AM 24.8 °F 15.3 °F 21.2 °F 86% 29.80 in 10.0 mi West 9.2 mph - N/A   Scattered Clouds
10:53 AM 26.1 °F 16.2 °F 21.9 °F 84% 29.91 in 10.0 mi WNW 10.4 mph - N/A   Clear
11:53 AM 28.0 °F 18.6 °F 23.0 °F 81% 29.90 in 10.0 mi West 10.4 mph - N/A   Clear
12:53 PM 28.0 °F 20.8 °F 23.0 °F 81% 29.88 in 10.0 mi West 6.9 mph - N/A   Overcast
1:48 PM 28.4 °F 17.5 °F 23.0 °F 80% 29.76 in 3.0 mi WNW 13.8 mph - 0.00 in Snow Light Snow
1:53 PM 28.0 °F 18.1 °F 23.0 °F 81% 29.87 in 1.8 mi WNW 11.5 mph - 0.00 in Snow Light Snow
2:30 PM 26.6 °F 18.2 °F 24.8 °F 93% 29.76 in 2.5 mi WNW 8.1 mph - 0.00 in Snow Light Snow
2:37 PM 26.6 °F 19.1 °F 24.8 °F 93% 29.76 in 5.0 mi WNW 6.9 mph - 0.00 in Snow Light Snow
2:53 PM 28.0 °F - 24.1 °F 85% 29.87 in 10.0 mi Calm Calm - 0.00 in   Overcast
3:53 PM 25.0 °F 18.1 °F 21.0 °F 85% 29.88 in 10.0 mi SSW 5.8 mph - N/A   Overcast
4:53 PM 23.0 °F - 18.0 °F 81% 29.88 in 10.0 mi Calm Calm - N/A   Overcast
5:53 PM 19.9 °F 12.1 °F 14.0 °F 78% 29.90 in 10.0 mi SW 5.8 mph - N/A   Overcast
6:53 PM 16.0 °F - 10.0 °F 77% 29.90 in 10.0 mi Calm Calm - N/A   Clear
7:53 PM 15.1 °F 6.4 °F 8.1 °F 74% 29.89 in 10.0 mi South 5.8 mph - N/A   Clear
8:53 PM 14.0 °F 6.5 °F 7.0 °F 74% 29.88 in 10.0 mi SSE 4.6 mph - N/A   Overcast
9:53 PM 17.1 °F - 8.1 °F 68% 29.86 in 10.0 mi Calm Calm - N/A   Overcast
10:53 PM 14.0 °F - 7.0 °F 74% 29.86 in 10.0 mi Calm Calm - N/A   Partly Cloudy
11:53 PM 15.1 °F - 7.0 °F 70% 29.84 in 10.0 mi Calm Calm - N/A   Mostly Cloudy